Location: Sweetwater (historical)
(38.4624°N, 119.1749°W)
Time: 12:37:10
(UTC+00:00)

Daily predictions for brighter satellites

Satellite Brightness Start Highest point End
(mag) Time Altitude Azimuth Time Altitude Azimuth Time Altitude Azimuth
CZ-2C R/B 3.7 12:02:32 10° N 12:05:50 29° WNW 12:07:44 18° WSW
ARIANE 5 R/B 4.1 12:02:12 10° NNW 12:05:56 20° WNW 12:08:33 14° W
MSX 4.2 12:01:19 10° N 12:06:48 47° WNW 12:11:53 12° SW
USA 267 3.9 12:01:24 10° ESE 12:07:48 61° NE 12:14:14 10° NW
Cosmos 1745 Rocket 4.3 12:05:05 10° NNW 12:10:59 45° W 12:16:47 10° SSW
CZ-4B R/B 2.2 12:09:46 10° SSE 12:12:56 53° ENE 12:16:03 10° N
Cosmos 1455 3.6 12:11:09 10° SSE 12:14:47 41° E 12:18:26 10° NNE
Landsat 5 4.0 12:12:17 10° SSW 12:15:54 35° W 12:19:39 10° NNW
Cosmos 1953 Rocket 4.3 12:12:15 10° NNW 12:16:15 32° W 12:20:12 10° SSW
Cosmos 1300 3.7 12:15:09 15° SW 12:17:37 28° WNW 12:20:56 10° NNW
Lacrosse 5 rocket 3.0 12:13:44 10° S 12:17:49 34° SE 12:21:59 10° ENE
SeaSat 1 2.5 12:17:34 10° NNE 12:22:28 66° WNW 12:27:21 10° SW
ADEOS Rocket 4.0 12:18:24 10° SSE 12:26:00 72° ENE 12:33:45 10° N
Cosmos 2058 3.3 12:23:27 10° N 12:27:38 70° E 12:31:48 10° SSE
ERS-2 3.1 12:25:48 10° SSW 12:28:55 27° W 12:32:03 10° NW
TSX-5 3.2 12:40:01 10° SSW 12:43:11 88° ESE 12:46:23 10° NNE
SAR-Lupe-4 3.8 12:41:58 10° S 12:45:25 49° W 12:48:55 10° NNW
COSMO-SKYMED 1 4.3 12:41:47 10° SE 12:45:47 39° ENE 12:49:50 10° N
